[[{"header":{"parameterUnit":"m.s-1","parameterCategory":1,"la1":30.2991,"la2":30.254,"lo1":-89.0895,"lo2":-89.0444,"dy":0.0017,"dx":0.0017,"nx":28,"ny":28,"refTime":"2024-08-18T21:00:00:Z","depth":0,"parameterNumber":2,"parameterNumberName":"U-component_of_WINDS"},"data":[0,0,0,0,0,0,0,0,0,0,0,0,0,0,0,0,0,0,0,0,0,0,0,0,0,0,0,0,0,0,0,0,0,0,0,0,0,0,0,0,0,0,0,0,0,0,0,0,0,0,0,0,0,0,0,0,0,0,0.4635,0.4636,0,0.4746,0.4747,0.4748,0.479,0.479,0.4789,0.4789,0.4909,0.4913,0.4916,0,0,0,0,0,0,0,0,0,0,0,0,0,0.4468,0.4471,0.4635,0.4637,0.4638,0.4746,0.4747,0.4749,0.479,0.479,0.4789,0.4789,0.4908,0.4912,0.4917,0,0,0,0,0,0,0,0,0,0,0,0,0,0.4556,0.4472,0.4635,0.4671,0.4676,0.4745,0.4747,0.4749,0.479,0.479,0.4789,0.4789,0.4907,0.4912,0.4917,0.4961,0,0,0.4933,0.4936,0,0,0,0,0,0,0,0,0.4551,0.4562,0.4665,0.4669,0.4674,0.4753,0.4732,0.482,0.479,0.4747,0.4789,0.4788,0.4858,0.4868,0.489,0.4966,0.4972,0.4934,0.4937,0.4939,0.4941,0,0,0,0,0,0,0,0.4545,0.4558,0.4679,0.4666,0.4672,0.4685,0.4697,0.4749,0.4805,0.4751,0.4754,0.4766,0.4861,0.4885,0.4893,0.4973,0.4934,0.4939,0.4942,0.4944,0.5094,0.5095,0,0,0,0,0,0,0.4532,0.4552,0.4676,0.4682,0.461,0.4688,0.4702,0.4729,0.4804,0.4815,0.4766,0.4768,0.4876,0.4887,0.4897,0.4954,0.4939,0.4944,0.4947,0.5093,0.5094,0.5095,0,0,0,0,0,0,0.4528,0.4542,0.4671,0.4618,0.4636,0.4692,0.4722,0.4731,0.4755,0.4816,0.4827,0.478,0.4876,0.489,0.4945,0.4959,0.4947,0.4952,0.5092,0.5093,0.5094,0.5068,0,0,0,0,0,0,0.4523,0.4541,0.4556,0.4618,0.4638,0.4714,0.4723,0.4734,0.4763,0.4765,0.4831,0.4842,0.4876,0.4936,0.495,0.4966,0.4956,0.5091,0.5093,0.5094,0.5067,0.5068,0.5068,0,0,0,0,0,0.4517,0.4545,0.4556,0.4571,0.4658,0.4715,0.4726,0.4763,0.4764,0.4781,0.482,0.484,0.4955,0.4942,0.4957,0.4975,0.509,0.5092,0.5094,0.5067,0.5068,0.5068,0,0,0,0,0,0,0.4485,0.4554,0.4567,0.4615,0.4659,0.4721,0.4744,0.4762,0.4808,0.4809,0.4856,0.487,0.4922,0.4954,0.4938,0.5023,0.5024,0.5029,0.4999,0.5,0.5,0.4991,0.496,0,0,0,0,0,0.4483,0.452,0.458,0.4617,0.4638,0.4687,0.4713,0.4738,0.4786,0.4805,0.4848,0.4896,0.4943,0.4974,0.502,0.5073,0.5089,0.5093,0.5093,0.5093,0.5097,0.5129,0.5132,0.5101,0.5101,0.5101,0,0,0.448,0.4523,0.4544,0.4612,0.4648,0.4689,0.4702,0.4744,0.4776,0.4812,0.4866,0.49,0.4956,0.501,0.5036,0.5039,0.5109,0.5096,0.5095,0.5099,0.5131,0.5134,0.5137,0.5102,0.5102,0.5102,0,0,0.4496,0.4531,0.4566,0.4602,0.4656,0.4689,0.4698,0.4758,0.4781,0.4836,0.4864,0.4904,0.4984,0.5023,0.5053,0.5086,0.5106,0.51,0.5102,0.5132,0.5135,0.5137,0.515,0.5154,0.5104,0.5104,0.5104,0,0.4486,0.4546,0.4583,0.4623,0.4653,0.4686,0.4724,0.4758,0.4826,0.4847,0.4849,0.495,0.4991,0.5055,0.5063,0.5087,0.51,0.5093,0.5131,0.5134,0.5137,0.5149,0.5154,0.5103,0.5103,0.5103,0.5103,0,0.4532,0.4573,0.4596,0.4658,0.4691,0.473,0.4775,0.4805,0.4828,0.4861,0.4918,0.4967,0.5025,0.5043,0.5066,0.5111,0.5111,0.5121,0.5124,0.5138,0.5151,0.5156,0.5101,0.5102,0.5102,0.5102,0,0,0.4529,0.4611,0.4619,0.4648,0.4712,0.4746,0.4788,0.4842,0.4867,0.4914,0.4952,0.5019,0.5029,0.5064,0.5092,0.5119,0.5143,0.5127,0.5129,0.5128,0.5198,0.519,0.5195,0.5157,0.5158,0.5159,0.5194,0,0.4553,0.4626,0.4662,0.4721,0.4761,0.4794,0.4831,0.4875,0.4908,0.4949,0.4987,0.5034,0.5043,0.5064,0.5092,0.5134,0.5158,0.5132,0.5195,0.5197,0.5179,0.5201,0.5193,0.5223,0.5199,0.52,0.52,0,0.4591,0.4635,0.4697,0.4756,0.4775,0.4807,0.4861,0.4899,0.4951,0.4973,0.5012,0.504,0.5089,0.5088,0.5157,0.5139,0.5167,0.5192,0.5194,0.5201,0.5199,0.521,0.5233,0.5238,0.5208,0.5208,0.5207,0,0.4583,0.4659,0.4706,0.473,0.48,0.4822,0.4853,0.4905,0.4936,0.4984,0.5005,0.5059,0.5089,0.5132,0.5174,0.517,0.524,0.5243,0.5262,0.5261,0.5275,0.5273,0.5303,0.5293,0.5292,0.5292,0.5292,0,0.4607,0.4644,0.4703,0.4732,0.4776,0.4818,0.4861,0.4895,0.494,0.4979,0.5012,0.5048,0.5102,0.5146,0.518,0.5233,0.5246,0.5267,0.5276,0.5264,0.5261,0.5283,0.5282,0.5294,0.5293,0.5293,0.5293,0,0.4605,0.4646,0.47,0.4762,0.4779,0.4808,0.4863,0.4894,0.4929,0.4978,0.4992,0.5047,0.5101,0.5147,0.5219,0.5242,0.5296,0.5307,0.5277,0.5282,0.5299,0.5297,0.5344,0.5353,0.5335,0.5336,0.5336,0,0.4617,0.4646,0.4711,0.4738,0.4768,0.4811,0.4843,0.4886,0.4918,0.4981,0.5005,0.506,0.5106,0.5191,0.524,0.5295,0.5307,0.532,0.5316,0.5304,0.5308,0.5306,0.531,0.532,0.532,0.532,0.532,0,0.4635,0.4654,0.4696,0.4747,0.4783,0.4826,0.4869,0.489,0.4943,0.4978,0.5032,0.5067,0.514,0.5195,0.5255,0.5291,0.5315,0.5321,0.5328,0.5317,0.5299,0.5309,0.5278,0.5319,0.5319,0.5319,0.5319,0.5319,0.4641,0.4669,0.4719,0.4766,0.4803,0.4843,0.4876,0.4914,0.4959,0.5019,0.5044,0.5099,0.5153,0.5237,0.5272,0.5318,0.5322,0.5333,0.5335,0.5337,0.5336,0.5291,0.5329,0.5329,0.5329,0.5329,0.533,0,0.466,0.4694,0.4737,0.4796,0.4834,0.4851,0.4901,0.4933,0.498,0.5027,0.5072,0.5135,0.5189,0.5242,0.53,0.5326,0.5339,0.534,0.5339,0.5347,0.5328,0.5316,0.5329,0.5329,0.5329,0.5329,0.5329,0.5329,0.4675,0.4723,0.4748,0.4816,0.4851,0.4903,0.493,0.4969,0.5007,0.5075,0.5119,0.5152,0.5203,0.5265,0.5317,0.5331,0.5351,0.5349,0.5367,0.5349,0.5348,0.5348,0.5336,0.5353,0.5353,0.5382,0.5382,0.5383]},{"header":{"parameterUnit":"m.s-1","parameterCategory":1,"la1":30.2991,"la2":30.254,"lo1":-89.0895,"lo2":-89.0444,"dy":0.0017,"dx":0.0017,"nx":28,"ny":28,"refTime":"2024-08-18T21:00:00:Z","depth":0,"parameterNumber":3,"parameterNumberName":"V-component_of_WINDS"},"data":[0,0,0,0,0,0,0,0,0,0,0,0,0,0,0,0,0,0,0,0,0,0,0,0,0,0,0,0,0,0,0,0,0,0,0,0,0,0,0,0,0,0,0,0,0,0,0,0,0,0,0,0,0,0,0,0,0,0,-1.3197,-1.3197,0,-1.3177,-1.3177,-1.3176,-1.3255,-1.3258,-1.326,-1.3262,-1.3236,-1.3233,-1.323,0,0,0,0,0,0,0,0,0,0,0,0,0,-1.3302,-1.33,-1.3197,-1.3197,-1.3197,-1.3177,-1.3177,-1.3176,-1.3255,-1.3258,-1.3261,-1.3263,-1.3237,-1.3234,-1.323,0,0,0,0,0,0,0,0,0,0,0,0,0,-1.3266,-1.3299,-1.3197,-1.3234,-1.3237,-1.3177,-1.3177,-1.3176,-1.3254,-1.3258,-1.3261,-1.3265,-1.3238,-1.3234,-1.323,-1.3132,0,0,-1.3216,-1.3215,0,0,0,0,0,0,0,0,-1.3268,-1.3262,-1.3229,-1.3231,-1.3235,-1.3222,-1.3204,-1.3161,-1.3253,-1.3247,-1.3262,-1.3266,-1.3228,-1.3225,-1.3213,-1.3131,-1.313,-1.3216,-1.3213,-1.3212,-1.321,0,0,0,0,0,0,0,-1.3271,-1.3264,-1.3189,-1.3228,-1.3232,-1.325,-1.3249,-1.3196,-1.3218,-1.3248,-1.3254,-1.3251,-1.3231,-1.3217,-1.3213,-1.3129,-1.3216,-1.3212,-1.321,-1.3208,-1.2968,-1.2965,0,0,0,0,0,0,-1.3269,-1.3265,-1.319,-1.3189,-1.3261,-1.3246,-1.3244,-1.3223,-1.3219,-1.3222,-1.3248,-1.3255,-1.3223,-1.3218,-1.3213,-1.3099,-1.3212,-1.3207,-1.3205,-1.2972,-1.2968,-1.2964,0,0,0,0,0,0,-1.3271,-1.3261,-1.3191,-1.3229,-1.3221,-1.324,-1.3215,-1.322,-1.3207,-1.3219,-1.3223,-1.323,-1.3226,-1.3219,-1.3152,-1.31,-1.3206,-1.3202,-1.2977,-1.2971,-1.2966,-1.2871,0,0,0,0,0,0,-1.3274,-1.3262,-1.3225,-1.3227,-1.3219,-1.3131,-1.3212,-1.3217,-1.32,-1.3209,-1.3203,-1.3206,-1.3228,-1.3158,-1.3148,-1.3096,-1.3198,-1.2981,-1.2974,-1.2967,-1.2879,-1.2863,-1.2849,0,0,0,0,0,-1.3277,-1.3198,-1.3223,-1.3213,-1.3174,-1.3128,-1.3123,-1.3151,-1.3195,-1.3159,-1.3167,-1.3206,-1.3107,-1.3151,-1.314,-1.3085,-1.2985,-1.2976,-1.2968,-1.2886,-1.2866,-1.285,0,0,0,0,0,0,-1.3186,-1.3198,-1.3226,-1.3146,-1.3136,-1.3141,-1.3096,-1.3129,-1.3105,-1.3114,-1.3149,-1.3147,-1.3075,-1.3074,-1.3122,-1.2992,-1.3054,-1.3042,-1.2995,-1.2976,-1.2962,-1.2963,-1.3195,0,0,0,0,0,-1.3157,-1.312,-1.3133,-1.306,-1.3054,-1.3076,-1.3057,-1.308,-1.307,-1.3065,-1.3068,-1.3056,-1.3023,-1.3,-1.297,-1.288,-1.288,-1.2837,-1.2822,-1.281,-1.28,-1.2754,-1.2735,-1.2936,-1.2936,-1.2936,0,0,-1.3095,-1.3098,-1.3072,-1.3042,-1.3037,-1.2997,-1.3071,-1.3025,-1.2996,-1.3058,-1.2996,-1.2998,-1.2987,-1.2909,-1.2875,-1.2906,-1.2745,-1.2799,-1.2789,-1.2786,-1.2743,-1.2724,-1.2707,-1.293,-1.2931,-1.2932,0,0,-1.2964,-1.2962,-1.2902,-1.2897,-1.2889,-1.2905,-1.289,-1.2892,-1.2896,-1.2836,-1.2882,-1.2848,-1.2789,-1.278,-1.2767,-1.2636,-1.2671,-1.2625,-1.2546,-1.2502,-1.2486,-1.2472,-1.2426,-1.2408,-1.2615,-1.2615,-1.2614,0,-1.2888,-1.2831,-1.2867,-1.2819,-1.2805,-1.2862,-1.2802,-1.2794,-1.2776,-1.2764,-1.28,-1.273,-1.2726,-1.2648,-1.2616,-1.2604,-1.2589,-1.2625,-1.2486,-1.2472,-1.246,-1.2416,-1.2398,-1.2609,-1.261,-1.261,-1.2611,0,-1.2739,-1.2699,-1.2652,-1.2636,-1.2617,-1.2563,-1.259,-1.2566,-1.2592,-1.2603,-1.2541,-1.254,-1.2511,-1.2495,-1.2518,-1.242,-1.244,-1.248,-1.2542,-1.2434,-1.2394,-1.2377,-1.2601,-1.2603,-1.2605,-1.2606,0,0,-1.2546,-1.2554,-1.2535,-1.253,-1.2528,-1.2497,-1.2447,-1.2421,-1.24,-1.2387,-1.2345,-1.2296,-1.2334,-1.232,-1.2343,-1.2304,-1.2201,-1.2349,-1.235,-1.2322,-1.2095,-1.2064,-1.2044,-1.2226,-1.2223,-1.222,-1.2096,0,-1.2417,-1.2332,-1.2364,-1.2277,-1.2241,-1.2297,-1.2253,-1.2247,-1.2257,-1.2228,-1.2239,-1.2204,-1.2256,-1.2249,-1.2212,-1.2221,-1.2156,-1.2231,-1.2187,-1.2185,-1.2187,-1.2023,-1.199,-1.1872,-1.208,-1.2077,-1.2075,0,-1.2254,-1.2238,-1.2147,-1.2154,-1.214,-1.21,-1.2081,-1.2053,-1.2047,-1.2057,-1.2043,-1.2076,-1.2027,-1.2091,-1.2023,-1.2074,-1.2058,-1.206,-1.2056,-1.2052,-1.2123,-1.2014,-1.1835,-1.1817,-1.2051,-1.2053,-1.2054,0,-1.2123,-1.2078,-1.2019,-1.2013,-1.2018,-1.1989,-1.199,-1.1988,-1.1972,-1.1955,-1.1945,-1.1921,-1.1907,-1.1888,-1.1914,-1.1958,-1.1843,-1.1909,-1.185,-1.1849,-1.1822,-1.1823,-1.1637,-1.1812,-1.1812,-1.1813,-1.1813,0,-1.1976,-1.1918,-1.1961,-1.1924,-1.1862,-1.19,-1.1837,-1.1844,-1.1842,-1.1808,-1.1854,-1.182,-1.1857,-1.1826,-1.1846,-1.1788,-1.1781,-1.1788,-1.1794,-1.1784,-1.1783,-1.1773,-1.1781,-1.1808,-1.1809,-1.181,-1.1811,0,-1.1818,-1.1844,-1.1783,-1.1796,-1.1797,-1.1751,-1.1761,-1.1727,-1.1743,-1.1699,-1.169,-1.1713,-1.1681,-1.1705,-1.1672,-1.1685,-1.1609,-1.1626,-1.1611,-1.1616,-1.1556,-1.1561,-1.1357,-1.1332,-1.1523,-1.1521,-1.1519,0,-1.1721,-1.1679,-1.1688,-1.167,-1.1668,-1.1637,-1.1622,-1.1658,-1.164,-1.1632,-1.1599,-1.1571,-1.1551,-1.1495,-1.1508,-1.1484,-1.1501,-1.1431,-1.1497,-1.1489,-1.15,-1.1502,-1.1498,-1.1417,-1.1415,-1.1413,-1.1411,0,-1.1547,-1.1564,-1.154,-1.1522,-1.1504,-1.149,-1.1481,-1.1463,-1.15,-1.1477,-1.1446,-1.143,-1.1398,-1.1369,-1.135,-1.135,-1.1386,-1.1391,-1.1376,-1.1365,-1.1358,-1.1361,-1.1574,-1.1395,-1.1397,-1.1398,-1.1399,-1.1399,-1.1417,-1.1383,-1.1386,-1.1359,-1.1356,-1.1347,-1.1317,-1.1331,-1.1305,-1.1284,-1.1307,-1.1268,-1.1266,-1.1245,-1.1241,-1.1211,-1.124,-1.1218,-1.1212,-1.1206,-1.1198,-1.1364,-1.1207,-1.1208,-1.1208,-1.1209,-1.1209,0,-1.1246,-1.1252,-1.1227,-1.1214,-1.1193,-1.1233,-1.1225,-1.1205,-1.1172,-1.1167,-1.1147,-1.1112,-1.1085,-1.1098,-1.1075,-1.1049,-1.1065,-1.1041,-1.1043,-1.1043,-1.1173,-1.1189,-1.1029,-1.1029,-1.1029,-1.1029,-1.1029,-1.1029,-1.1155,-1.11,-1.1117,-1.1062,-1.1067,-1.1032,-1.1025,-1.1017,-1.1014,-1.0973,-1.0952,-1.0962,-1.0964,-1.0942,-1.092,-1.0924,-1.0913,-1.0884,-1.0894,-1.1015,-1.1033,-1.105,-1.1065,-1.0881,-1.0881,-1.0766,-1.0765,-1.0764]}]]